This demonstration page uses our WeatherBlox Daily Observations layout. Learn more.

Hourly Observations for July 17, 2019

Temp ( °F °C ) Dew Point ( °F °C ) Humidity (%) Winds ( mph kmh ) Pressure ( in mb ) Visibility ( mi km ) Precip ( " mm )
12:15 am 00:15 Clear 82 28 77 25 84 84 SW 5 7 30.06 1018 10 16.09344 0 0
12:35 am 00:35 Clear 81 27 77 25 89 89 SW 5 7 30.06 1018 10 16.09344 0 0
12:55 am 00:55 Clear 81 27 77 25 89 89 SSW 3 6 30.06 1018 10 16.09344 0 0
1:15 am 01:15 Clear 81 27 77 25 89 89 SSW 6 9 30.06 1018 10 16.09344 0 0
1:35 am 01:35 Clear 81 27 77 25 89 89 SSW 5 7 30.03 1017 10 16.09344 0 0
1:55 am 01:55 Clear 81 27 77 25 89 89 SSW 5 7 30.03 1017 10 16.09344 0 0
2:15 am 02:15 Clear 79 26 77 25 94 94 SSW 3 6 30.03 1017 10 16.09344 0 0
2:35 am 02:35 Clear 79 26 77 25 94 94 Calm 30.03 1017 10 16.09344 0 0
2:55 am 02:55 Clear 79 26 75 24 89 89 SW 3 6 30.03 1017 10 16.09344 0 0
3:15 am 03:15 Clear 79 26 75 24 89 89 Calm 30 1016 10 16.09344 0 0
3:35 am 03:35 Clear 77 25 75 24 94 94 SW 3 6 30 1016 10 16.09344 0 0
3:55 am 03:55 Clear 77 25 75 24 94 94 Calm 30 1016 10 16.09344 0 0
4:15 am 04:15 Clear 77 25 75 24 94 94 SSW 3 6 30 1016 10 16.09344 0 0
4:35 am 04:35 Clear 75 24 73 23 94 94 SW 3 6 30 1016 10 16.09344 0 0
4:55 am 04:55 Clear 73 23 73 23 100 100 SW 5 7 30 1016 10 16.09344 0 0
5:15 am 05:15 Clear 73 23 73 23 100 100 SSW 3 6 30 1016 10 16.09344 0 0
5:35 am 05:35 Clear 73 23 73 23 100 100 SSW 3 6 30 1016 10 16.09344 0 0
5:55 am 05:55 Clear 73 23 73 23 100 100 SSW 3 6 30 1016 7 11.265408 0 0
6:15 am 06:15 Sunny 73 23 73 23 100 100 SSW 3 6 30 1016 7 11.265408 0 0
6:35 am 06:35 Sunny 73 23 73 23 100 100 Calm 30 1016 7 11.265408 0 0
6:55 am 06:55 Sunny 73 23 73 23 100 100 Calm 30 1016 10 16.09344 0 0
7:15 am 07:15 Sunny 75 24 73 23 94 94 Calm 30 1016 10 16.09344 0 0
7:35 am 07:35 Sunny 77 25 73 23 89 89 Calm 30 1016 10 16.09344 0 0
7:55 am 07:55 Sunny 79 26 75 24 89 89 Calm 30.03 1017 10 16.09344 0 0
8:15 am 08:15 Sunny 81 27 75 24 84 84 SW 3 6 30.03 1017 10 16.09344 0 0
8:35 am 08:35 Sunny 81 27 75 24 84 84 SW 3 6 30.03 1017 10 16.09344 0 0
8:55 am 08:55 Sunny 82 28 75 24 79 79 SW 3 6 30.03 1017 10 16.09344 0 0
9:15 am 09:15 Sunny 86 30 77 25 75 75 SW 5 7 30.03 1017 10 16.09344 0 0
9:35 am 09:35 Sunny 88 31 77 25 70 70 Calm 30 1016 10 16.09344 0 0
9:55 am 09:55 Sunny 88 31 77 25 70 70 S 3 6 29.97 1015 10 16.09344 0 0
10:15 am 10:15 Sunny 90 32 77 25 67 67 SSW 3 6 29.97 1015 10 16.09344 0 0
10:35 am 10:35 Sunny 90 32 73 23 59 59 SSW 3 6 29.97 1015 10 16.09344 0 0
10:55 am 10:55 Sunny 91 33 72 22 52 52 SSW 3 6 29.97 1015 10 16.09344 0 0
11:15 am 11:15 Sunny 91 33 70 21 49 49 W 6 9 29.97 1015 10 16.09344 0 0
11:35 am 11:35 Sunny 91 33 70 21 49 49 Calm 29.97 1015 10 16.09344 0 0
11:55 am 11:55 Partly Cloudy 93 34 72 22 49 49 Calm 29.97 1015 10 16.09344 0 0
12:15 pm 12:15 Partly Cloudy 95 35 72 22 47 47 Calm 29.94 1014 10 16.09344 0 0
12:35 pm 12:35 Sunny 95 35 72 22 47 47 WSW 6 9 29.94 1014 10 16.09344 0 0
12:55 pm 12:55 Sunny 97 36 72 22 44 44 SSW 5 7 29.94 1014 10 16.09344 0 0
1:15 pm 13:15 Sunny 97 36 70 21 42 42 SSW 8 13 29.94 1014 10 16.09344 0 0
1:35 pm 13:35 Sunny 97 36 70 21 42 42 W 8 13 29.91 1013 10 16.09344 0 0
1:55 pm 13:55 Sunny 97 36 70 21 42 42 SW 5 7 29.91 1013 10 16.09344 0 0
2:15 pm 14:15 Sunny 97 36 72 22 44 44 SW 13 20 29.91 1013 10 16.09344 0 0
2:35 pm 14:35 Sunny 99 37 70 21 39 39 SW 10 17 29.91 1013 10 16.09344 0 0
2:55 pm 14:55 Partly Cloudy 99 37 70 21 39 39 SSW 13 20 29.88 1012 10 16.09344 0 0
3:15 pm 15:15 Sunny 99 37 72 22 42 42 SSW 8 13 29.88 1012 10 16.09344 0 0
3:35 pm 15:35 Partly Cloudy 97 36 72 22 44 44 S 9 15 29.88 1012 10 16.09344 0 0
3:55 pm 15:55 Partly Cloudy with Nearby Thunderstorms 95 35 72 22 47 47 SW 12 19 29.85 1011 10 16.09344 0 0
4:15 pm 16:15 Partly Cloudy with Thunderstorms 93 34 73 23 53 53 SSW 8 13 29.85 1011 10 16.09344 0 0
4:35 pm 16:35 Mostly Cloudy with Thunderstorms 91 33 75 24 59 59 W 13 20 29.88 1012 10 16.09344 0 0
5:14 pm 17:14 Mostly Cloudy with Thunderstorms 75 24 73 23 94 94 SW 6 9 29.91 1013 10 16.09344 0.02 0.508
5:35 pm 17:35 Partly Cloudy with Nearby Thunderstorms 75 24 75 24 100 100 S 8 13 29.91 1013 10 16.09344 0.04 1.016
5:55 pm 17:55 Partly Cloudy with Nearby Thunderstorms 75 24 75 24 100 100 SW 5 7 29.91 1013 10 16.09344 0.05 1.27
6:15 pm 18:15 Partly Cloudy 75 24 75 24 100 100 SSW 6 9 29.91 1013 10 16.09344 0 0
6:35 pm 18:35 Partly Cloudy 75 24 75 24 100 100 SSW 5 7 29.91 1013 10 16.09344 0 0
6:55 pm 18:55 Partly Cloudy 75 24 75 24 100 100 S 3 6 29.91 1013 10 16.09344 0 0
7:15 pm 19:15 Partly Cloudy 75 24 75 24 100 100 SSW 6 9 29.91 1013 10 16.09344 0 0
7:35 pm 19:35 Partly Cloudy 75 24 75 24 100 100 Calm 29.91 1013 10 16.09344 0 0
7:55 pm 19:55 Sunny 77 25 75 24 94 94 SSW 3 6 29.91 1013 10 16.09344 0 0
8:14 pm 20:14 Partly Cloudy 77 25 75 24 94 94 SSW 3 6 29.91 1013 10 16.09344 0 0
8:35 pm 20:35 Partly Cloudy 75 24 75 24 100 100 Calm 29.91 1013 10 16.09344 0 0
8:55 pm 20:55 Clear 75 24 73 23 94 94 Calm 29.91 1013 10 16.09344 0 0
9:15 pm 21:15 Clear 75 24 75 24 100 100 Calm 29.91 1013 10 16.09344 0 0
9:35 pm 21:35 Partly Cloudy 75 24 75 24 100 100 Calm 29.91 1013 10 16.09344 0 0
9:56 pm 21:56 Mostly Cloudy 75 24 75 24 100 100 Calm 29.91 1013 10 16.09344 0 0
10:15 pm 22:15 Cloudy 75 24 75 24 100 100 Calm 29.91 1013 10 16.09344 0 0
10:55 pm 22:55 Clear 75 24 73 23 94 94 Calm 29.91 1013 10 16.09344 0 0
11:15 pm 23:15 Clear 73 23 73 23 100 100 Calm 29.91 1013 10 16.09344 0 0
11:35 pm 23:35 Mostly Cloudy 75 24 75 24 100 100 Calm 29.91 1013 10 16.09344 0 0
11:55 pm 23:55 Cloudy 73 23 73 23 100 100 Calm 29.91 1013 10 16.09344 0 0

Powered by AerisWeather